Time,TemperatureF,DewpointF,PressureIn,WindDirection,WindDirectionDegrees,WindSpeedMPH,WindSpeedGustMPH,Humidity,HourlyPrecipIn,Conditions,Clouds,dailyrainin,SoftwareType,DateUTC
2013-10-25 00:01:00,48.0,47.7,30.00,SSE,167,0.0,0.0,99,0.00,RA,,0.00,WeatherDisplay:10.37,2013-10-25 07:01:00,
2013-10-25 00:06:00,48.0,47.7,30.00,SSE,167,0.0,0.0,99,0.00,RA,,0.00,WeatherDisplay:10.37,2013-10-25 07:06:00,
2013-10-25 00:11:00,47.9,47.6,30.00,SSE,167,0.0,0.0,99,0.00,CLR,,0.00,WeatherDisplay:10.37,2013-10-25 07:11:00,
2013-10-25 00:16:00,47.8,47.5,30.00,SSE,167,0.0,0.0,99,0.00,CLR,,0.00,WeatherDisplay:10.37,2013-10-25 07:16:00,
2013-10-25 00:21:00,47.8,47.5,30.00,SSE,167,0.0,0.0,99,0.00,CLR,,0.00,WeatherDisplay:10.37,2013-10-25 07:21:00,
2013-10-25 00:26:00,47.8,47.5,30.00,SSE,167,0.0,0.0,99,0.00,CLR,,0.00,WeatherDisplay:10.37,2013-10-25 07:26:00,
2013-10-25 00:31:00,47.8,47.5,30.00,SSE,167,0.0,0.0,99,0.00,CLR,,0.00,WeatherDisplay:10.37,2013-10-25 07:31:00,
2013-10-25 00:36:00,47.7,47.4,30.00,SSE,167,0.0,0.0,99,0.00,CLR,,0.00,WeatherDisplay:10.37,2013-10-25 07:36:00,
2013-10-25 00:41:00,47.5,47.2,30.01,SSE,167,0.0,0.0,99,0.00,CLR,,0.00,WeatherDisplay:10.37,2013-10-25 07:41:00,
2013-10-25 00:46:00,47.7,47.4,30.01,SSE,167,0.0,0.0,99,0.00,CLR,,0.00,WeatherDisplay:10.37,2013-10-25 07:46:00,
2013-10-25 00:51:00,47.7,47.4,30.01,SSE,167,0.0,0.0,99,0.00,CLR,,0.00,WeatherDisplay:10.37,2013-10-25 07:51:00,
2013-10-25 00:56:00,47.7,47.4,30.01,SSE,167,0.0,0.0,99,0.00,CLR,,0.00,WeatherDisplay:10.37,2013-10-25 07:56:00,
2013-10-25 01:01:00,47.8,47.5,30.01,SSE,167,0.0,0.0,99,0.00,CLR,,0.00,WeatherDisplay:10.37,2013-10-25 08:01:00,
2013-10-25 01:06:00,47.8,47.5,30.01,SSE,167,0.0,0.0,99,0.00,CLR,,0.00,WeatherDisplay:10.37,2013-10-25 08:06:00,
2013-10-25 01:11:00,47.8,47.5,30.02,SSE,167,0.0,0.0,99,0.00,CLR,,0.00,WeatherDisplay:10.37,2013-10-25 08:11:00,
2013-10-25 01:16:00,47.9,47.6,30.02,SSE,167,0.0,0.0,99,0.00,CLR,,0.00,WeatherDisplay:10.37,2013-10-25 08:16:00,
2013-10-25 01:21:00,48.1,47.8,30.02,SSE,167,0.0,0.0,99,0.00,CLR,,0.00,WeatherDisplay:10.37,2013-10-25 08:21:00,
2013-10-25 01:26:00,48.2,47.9,30.02,SSE,167,0.0,0.0,99,0.00,CLR,,0.00,WeatherDisplay:10.37,2013-10-25 08:26:00,
2013-10-25 01:31:00,48.3,48.0,30.03,SSE,167,0.0,0.0,99,0.00,CLR,,0.00,WeatherDisplay:10.37,2013-10-25 08:31:00,
2013-10-25 01:36:00,48.5,48.2,30.02,SSE,167,0.0,0.0,99,0.00,CLR,,0.00,WeatherDisplay:10.37,2013-10-25 08:36:00,
2013-10-25 01:41:00,48.7,48.4,30.03,SSE,167,0.0,0.0,99,0.00,CLR,,0.00,WeatherDisplay:10.37,2013-10-25 08:41:00,
2013-10-25 01:46:00,48.8,48.5,30.02,SSE,167,0.0,0.0,99,0.00,CLR,,0.00,WeatherDisplay:10.37,2013-10-25 08:46:00,
2013-10-25 01:51:00,48.8,48.5,30.03,SSE,167,0.0,0.0,99,0.00,CLR,,0.00,WeatherDisplay:10.37,2013-10-25 08:51:00,
2013-10-25 01:56:00,48.6,48.3,30.03,SSE,167,0.0,0.0,99,0.00,CLR,,0.00,WeatherDisplay:10.37,2013-10-25 08:56:00,
2013-10-25 02:01:00,48.7,48.4,30.03,SSE,167,0.0,0.0,99,0.00,CLR,,0.00,WeatherDisplay:10.37,2013-10-25 09:01:00,
2013-10-25 02:06:00,48.6,48.3,30.03,SSE,167,0.0,0.0,99,0.00,CLR,,0.00,WeatherDisplay:10.37,2013-10-25 09:06:00,
2013-10-25 02:11:00,48.7,48.4,30.03,SSE,167,0.0,0.0,99,0.00,CLR,,0.00,WeatherDisplay:10.37,2013-10-25 09:11:00,
2013-10-25 02:16:00,48.7,48.4,30.04,SSE,167,0.0,0.0,99,0.00,CLR,,0.00,WeatherDisplay:10.37,2013-10-25 09:16:00,
2013-10-25 02:21:00,48.6,48.3,30.04,SSE,167,0.0,0.0,99,0.00,CLR,,0.00,WeatherDisplay:10.37,2013-10-25 09:21:00,
2013-10-25 02:26:00,48.6,48.3,30.04,SSE,167,0.0,0.0,99,0.00,CLR,,0.00,WeatherDisplay:10.37,2013-10-25 09:26:00,
2013-10-25 02:31:00,48.7,48.4,30.04,SSE,167,0.0,0.0,99,0.00,CLR,,0.00,WeatherDisplay:10.37,2013-10-25 09:31:00,
2013-10-25 02:36:00,48.8,48.5,30.05,SSE,167,0.0,0.0,99,0.00,CLR,,0.00,WeatherDisplay:10.37,2013-10-25 09:36:00,
2013-10-25 02:41:00,48.8,48.5,30.05,SSE,167,0.0,0.0,99,0.00,CLR,,0.00,WeatherDisplay:10.37,2013-10-25 09:41:00,
2013-10-25 02:46:00,48.6,48.3,30.05,SSE,167,0.0,0.0,99,0.00,CLR,,0.00,WeatherDisplay:10.37,2013-10-25 09:46:00,
2013-10-25 02:51:00,48.5,48.2,30.05,SSE,167,0.0,0.0,99,0.00,CLR,,0.00,WeatherDisplay:10.37,2013-10-25 09:51:00,
2013-10-25 02:56:00,48.6,48.3,30.05,SSE,167,0.0,0.0,99,0.00,CLR,,0.00,WeatherDisplay:10.37,2013-10-25 09:56:00,
2013-10-25 03:01:00,48.7,48.4,30.05,SSE,167,0.0,0.0,99,0.00,CLR,,0.00,WeatherDisplay:10.37,2013-10-25 10:01:00,
2013-10-25 03:06:00,48.7,48.4,30.05,SSE,167,0.0,0.0,99,0.00,CLR,,0.00,WeatherDisplay:10.37,2013-10-25 10:06:00,
2013-10-25 03:11:00,48.6,48.3,30.06,SSE,167,0.0,0.0,99,0.00,CLR,,0.00,WeatherDisplay:10.37,2013-10-25 10:11:00,
2013-10-25 03:16:00,48.5,48.2,30.06,SSE,167,0.0,0.0,99,0.00,CLR,,0.00,WeatherDisplay:10.37,2013-10-25 10:16:00,
2013-10-25 03:21:00,48.5,48.2,30.06,SSE,167,0.0,0.0,99,0.00,CLR,,0.00,WeatherDisplay:10.37,2013-10-25 10:21:00,
2013-10-25 03:26:00,48.5,48.2,30.06,SSE,167,0.0,0.0,99,0.00,CLR,,0.00,WeatherDisplay:10.37,2013-10-25 10:26:00,
2013-10-25 03:31:00,48.4,48.1,30.05,SSE,167,0.0,0.0,99,0.00,CLR,,0.00,WeatherDisplay:10.37,2013-10-25 10:31:00,
2013-10-25 03:36:00,48.3,48.0,30.05,SSE,167,0.0,0.0,99,0.00,CLR,,0.00,WeatherDisplay:10.37,2013-10-25 10:36:00,
2013-10-25 03:41:00,48.4,48.1,30.05,SSE,167,0.0,0.0,99,0.00,CLR,,0.00,WeatherDisplay:10.37,2013-10-25 10:41:00,
2013-10-25 03:46:00,48.5,48.2,30.06,SSE,167,0.0,0.0,99,0.00,CLR,,0.00,WeatherDisplay:10.37,2013-10-25 10:46:00,
2013-10-25 03:51:00,48.5,48.2,30.06,SSE,167,0.0,0.0,99,0.00,CLR,,0.00,WeatherDisplay:10.37,2013-10-25 10:51:00,
2013-10-25 03:56:00,48.4,48.1,30.06,SSE,167,0.0,0.0,99,0.00,CLR,,0.00,WeatherDisplay:10.37,2013-10-25 10:56:00,
2013-10-25 04:01:00,48.4,48.1,30.06,SSE,167,0.0,0.0,99,0.00,CLR,,0.00,WeatherDisplay:10.37,2013-10-25 11:01:00,
2013-10-25 04:06:00,48.3,48.0,30.06,SSE,167,0.0,0.0,99,0.00,CLR,,0.00,WeatherDisplay:10.37,2013-10-25 11:06:00,
2013-10-25 04:11:00,48.4,48.1,30.06,SSE,167,0.0,0.0,99,0.00,CLR,,0.00,WeatherDisplay:10.37,2013-10-25 11:11:00,
2013-10-25 04:16:00,48.5,48.2,30.06,SSE,167,0.0,0.0,99,0.00,CLR,,0.00,WeatherDisplay:10.37,2013-10-25 11:16:00,
2013-10-25 04:21:00,48.5,48.2,30.06,SSE,167,0.0,0.0,99,0.00,CLR,,0.00,WeatherDisplay:10.37,2013-10-25 11:21:00,
2013-10-25 04:26:00,48.3,48.0,30.06,SSE,167,0.0,0.0,99,0.00,CLR,,0.00,WeatherDisplay:10.37,2013-10-25 11:26:00,
2013-10-25 04:31:00,48.4,48.1,30.06,SSE,167,0.0,0.0,99,0.00,CLR,,0.00,WeatherDisplay:10.37,2013-10-25 11:31:00,
2013-10-25 04:36:00,48.4,48.1,30.06,SSE,167,0.0,0.0,99,0.00,CLR,,0.00,WeatherDisplay:10.37,2013-10-25 11:36:00,
2013-10-25 04:41:00,48.5,48.2,30.06,SSE,167,0.0,0.0,99,0.00,CLR,,0.00,WeatherDisplay:10.37,2013-10-25 11:41:00,
2013-10-25 04:46:00,48.5,48.2,30.07,SSE,167,0.0,0.0,99,0.00,CLR,,0.00,WeatherDisplay:10.37,2013-10-25 11:46:00,
2013-10-25 04:51:00,48.3,48.0,30.07,SSE,167,0.0,0.0,99,0.00,CLR,,0.00,WeatherDisplay:10.37,2013-10-25 11:51:00,
2013-10-25 04:56:00,48.4,48.1,30.07,SSE,167,0.0,0.0,99,0.00,CLR,,0.00,WeatherDisplay:10.37,2013-10-25 11:56:00,
2013-10-25 05:01:00,48.4,48.1,30.07,SSE,167,0.0,0.0,99,0.00,CLR,,0.00,WeatherDisplay:10.37,2013-10-25 12:01:00,
2013-10-25 05:06:00,48.5,48.2,30.07,SSE,167,0.0,0.0,99,0.00,CLR,,0.00,WeatherDisplay:10.37,2013-10-25 12:06:00,
2013-10-25 05:11:00,48.6,48.3,30.07,SSE,167,0.0,0.0,99,0.00,CLR,,0.00,WeatherDisplay:10.37,2013-10-25 12:11:00,
2013-10-25 05:16:00,48.5,48.2,30.07,SSE,167,0.0,0.0,99,0.00,CLR,,0.00,WeatherDisplay:10.37,2013-10-25 12:16:00,
2013-10-25 05:21:00,48.6,48.3,30.07,SSE,167,0.0,0.0,99,0.00,CLR,,0.00,WeatherDisplay:10.37,2013-10-25 12:21:00,
2013-10-25 05:26:00,48.6,48.3,30.08,SSE,167,0.0,0.0,99,0.00,CLR,,0.00,WeatherDisplay:10.37,2013-10-25 12:26:00,
2013-10-25 05:31:00,48.8,48.5,30.08,SSE,167,0.0,0.0,99,0.00,CLR,,0.00,WeatherDisplay:10.37,2013-10-25 12:31:00,
2013-10-25 05:36:00,48.8,48.5,30.08,SSE,167,0.0,0.0,99,0.00,CLR,,0.00,WeatherDisplay:10.37,2013-10-25 12:36:00,
2013-10-25 05:41:00,48.7,48.4,30.08,SSE,167,0.0,0.0,99,0.00,CLR,,0.00,WeatherDisplay:10.37,2013-10-25 12:41:00,
2013-10-25 05:46:00,48.8,48.5,30.08,SSE,167,0.0,0.0,99,0.00,CLR,,0.00,WeatherDisplay:10.37,2013-10-25 12:46:00,
2013-10-25 05:51:00,48.8,48.5,30.08,SSE,167,0.0,0.0,99,0.00,CLR,,0.00,WeatherDisplay:10.37,2013-10-25 12:51:00,
2013-10-25 05:56:00,49.0,48.7,30.08,SSE,167,0.0,0.0,99,0.00,CLR,,0.00,WeatherDisplay:10.37,2013-10-25 12:56:00,
2013-10-25 06:01:00,49.0,48.7,30.08,SSE,167,0.0,0.0,99,0.00,CLR,,0.00,WeatherDisplay:10.37,2013-10-25 13:01:00,
2013-10-25 06:06:00,48.9,48.6,30.09,SSE,167,0.0,0.0,99,0.00,CLR,,0.00,WeatherDisplay:10.37,2013-10-25 13:06:00,
2013-10-25 06:11:00,48.9,48.6,30.09,SSE,167,0.0,0.0,99,0.00,CLR,,0.00,WeatherDisplay:10.37,2013-10-25 13:11:00,
2013-10-25 06:16:00,48.9,48.6,30.09,SSE,167,0.0,0.0,99,0.00,CLR,,0.00,WeatherDisplay:10.37,2013-10-25 13:16:00,
2013-10-25 06:21:00,48.9,48.6,30.09,SSE,167,0.0,0.0,99,0.00,CLR,,0.00,WeatherDisplay:10.37,2013-10-25 13:21:00,
2013-10-25 06:26:00,49.0,48.7,30.09,SSE,167,0.0,0.0,99,0.00,CLR,,0.00,WeatherDisplay:10.37,2013-10-25 13:26:00,
2013-10-25 06:31:00,48.8,48.5,30.09,SSE,167,0.0,0.0,99,0.00,CLR,,0.00,WeatherDisplay:10.37,2013-10-25 13:31:00,
2013-10-25 06:36:00,48.8,48.5,30.09,SSE,167,0.0,0.0,99,0.00,CLR,,0.00,WeatherDisplay:10.37,2013-10-25 13:36:00,
2013-10-25 06:41:00,48.7,48.4,30.09,SSE,167,0.0,0.0,99,0.00,CLR,,0.00,WeatherDisplay:10.37,2013-10-25 13:41:00,
2013-10-25 06:46:00,48.9,48.6,30.09,SSE,167,0.0,0.0,99,0.00,CLR,,0.00,WeatherDisplay:10.37,2013-10-25 13:46:00,
2013-10-25 06:51:00,49.0,48.7,30.09,SSE,167,0.0,0.0,99,0.00,CLR,,0.00,WeatherDisplay:10.37,2013-10-25 13:51:00,
2013-10-25 06:56:00,49.0,48.7,30.09,SSE,167,0.0,0.0,99,0.00,CLR,,0.00,WeatherDisplay:10.37,2013-10-25 13:56:00,
2013-10-25 07:01:00,48.9,48.6,30.09,SSE,167,0.0,0.0,99,0.00,CLR,,0.00,WeatherDisplay:10.37,2013-10-25 14:01:00,
2013-10-25 07:06:00,49.0,48.7,30.10,SSE,167,0.0,0.0,99,0.00,CLR,,0.00,WeatherDisplay:10.37,2013-10-25 14:06:00,
2013-10-25 07:11:00,49.1,48.8,30.10,SSE,167,0.0,0.0,99,0.01,RA,,0.01,WeatherDisplay:10.37,2013-10-25 14:11:00,
2013-10-25 07:16:00,49.2,48.9,30.10,SSE,167,0.0,0.0,99,0.01,RA,,0.01,WeatherDisplay:10.37,2013-10-25 14:16:00,
2013-10-25 07:21:00,49.2,48.9,30.10,SSE,167,0.0,0.0,99,0.01,CLR,,0.01,WeatherDisplay:10.37,2013-10-25 14:21:00,
2013-10-25 07:26:00,49.3,49.0,30.10,North,4,0.0,0.2,99,0.01,CLR,,0.01,WeatherDisplay:10.37,2013-10-25 14:26:00,
2013-10-25 07:31:00,49.3,49.0,30.10,North,4,0.0,0.0,99,0.01,CLR,,0.01,WeatherDisplay:10.37,2013-10-25 14:31:00,
2013-10-25 07:36:00,49.4,49.1,30.10,North,4,0.0,0.0,99,0.01,CLR,,0.01,WeatherDisplay:10.37,2013-10-25 14:36:00,
2013-10-25 07:41:00,49.4,49.1,30.10,North,4,0.0,0.0,99,0.01,CLR,,0.01,WeatherDisplay:10.37,2013-10-25 14:41:00,
2013-10-25 07:46:00,49.5,49.2,30.10,North,4,0.0,0.0,99,0.01,CLR,,0.01,WeatherDisplay:10.37,2013-10-25 14:46:00,
2013-10-25 07:51:00,49.4,49.1,30.10,North,4,0.0,0.0,99,0.01,CLR,,0.01,WeatherDisplay:10.37,2013-10-25 14:51:00,
2013-10-25 07:56:00,49.3,49.0,30.11,North,4,0.0,0.0,99,0.01,CLR,,0.01,WeatherDisplay:10.37,2013-10-25 14:56:00,
2013-10-25 08:01:00,49.4,49.1,30.11,North,4,0.0,0.0,99,0.01,CLR,,0.01,WeatherDisplay:10.37,2013-10-25 15:01:00,
2013-10-25 08:06:00,49.4,49.1,30.11,North,4,0.0,0.0,99,0.01,CLR,,0.01,WeatherDisplay:10.37,2013-10-25 15:06:00,
2013-10-25 08:11:00,49.5,49.2,30.11,North,4,0.0,0.0,99,0.00,CLR,,0.01,WeatherDisplay:10.37,2013-10-25 15:11:00,
2013-10-25 08:16:00,49.4,49.1,30.11,North,4,0.0,0.0,99,0.00,CLR,,0.01,WeatherDisplay:10.37,2013-10-25 15:16:00,
2013-10-25 08:21:00,49.4,49.1,30.11,North,4,0.0,0.0,99,0.00,CLR,,0.01,WeatherDisplay:10.37,2013-10-25 15:21:00,
2013-10-25 08:26:00,49.4,49.1,30.11,North,4,0.0,0.0,99,0.00,CLR,,0.01,WeatherDisplay:10.37,2013-10-25 15:26:00,
2013-10-25 08:31:00,49.5,49.2,30.12,North,4,0.0,0.0,99,0.00,CLR,,0.01,WeatherDisplay:10.37,2013-10-25 15:31:00,
2013-10-25 08:36:00,49.6,49.3,30.12,North,4,0.0,0.0,99,0.00,CLR,,0.01,WeatherDisplay:10.37,2013-10-25 15:36:00,
2013-10-25 08:41:00,49.6,49.3,30.12,North,4,0.0,0.0,99,0.00,CLR,,0.01,WeatherDisplay:10.37,2013-10-25 15:41:00,
2013-10-25 08:46:00,49.6,49.3,30.12,North,4,0.0,0.0,99,0.00,CLR,,0.01,WeatherDisplay:10.37,2013-10-25 15:46:00,
2013-10-25 08:51:00,49.6,49.3,30.12,North,4,0.0,0.0,99,0.00,CLR,,0.01,WeatherDisplay:10.37,2013-10-25 15:51:00,
2013-10-25 08:56:00,49.7,49.4,30.12,North,4,0.0,0.0,99,0.00,CLR,,0.01,WeatherDisplay:10.37,2013-10-25 15:56:00,
2013-10-25 09:01:00,49.8,49.5,30.12,North,4,0.0,0.0,99,0.00,CLR,,0.01,WeatherDisplay:10.37,2013-10-25 16:01:00,
2013-10-25 09:07:00,49.7,49.4,30.13,North,4,0.0,0.0,99,0.00,CLR,,0.01,WeatherDisplay:10.37,2013-10-25 16:07:00,
2013-10-25 09:12:00,49.7,49.4,30.13,North,4,0.0,0.0,99,0.00,CLR,,0.01,WeatherDisplay:10.37,2013-10-25 16:12:00,
2013-10-25 09:17:00,49.8,49.5,30.13,North,4,0.0,0.0,99,0.00,CLR,,0.01,WeatherDisplay:10.37,2013-10-25 16:17:00,
2013-10-25 09:22:00,49.9,49.6,30.13,North,4,0.0,0.0,99,0.00,CLR,,0.01,WeatherDisplay:10.37,2013-10-25 16:22:00,
2013-10-25 09:27:00,50.0,49.7,30.13,North,4,0.0,0.0,99,0.00,CLR,,0.01,WeatherDisplay:10.37,2013-10-25 16:27:00,
2013-10-25 09:32:00,50.0,49.7,30.13,North,4,0.0,0.0,99,0.00,CLR,,0.01,WeatherDisplay:10.37,2013-10-25 16:32:00,
2013-10-25 09:37:00,50.0,49.7,30.13,North,4,0.0,0.0,99,0.00,CLR,,0.01,WeatherDisplay:10.37,2013-10-25 16:37:00,
2013-10-25 09:42:00,50.2,49.9,30.14,North,4,0.0,0.0,99,0.00,CLR,,0.01,WeatherDisplay:10.37,2013-10-25 16:42:00,
2013-10-25 09:47:00,50.3,50.0,30.14,North,4,0.0,0.0,99,0.00,CLR,,0.01,WeatherDisplay:10.37,2013-10-25 16:47:00,
2013-10-25 09:52:00,50.4,50.1,30.14,North,4,0.0,0.0,99,0.00,CLR,,0.01,WeatherDisplay:10.37,2013-10-25 16:52:00,
2013-10-25 09:57:00,50.4,50.1,30.14,North,4,0.0,0.0,99,0.00,CLR,,0.01,WeatherDisplay:10.37,2013-10-25 16:57:00,
2013-10-25 10:02:00,50.6,50.3,30.14,North,4,0.0,0.0,99,0.00,CLR,,0.01,WeatherDisplay:10.37,2013-10-25 17:02:00,
2013-10-25 10:07:00,50.6,50.3,30.14,North,4,0.0,0.0,99,0.00,CLR,,0.01,WeatherDisplay:10.37,2013-10-25 17:07:00,
2013-10-25 10:12:00,50.8,50.5,30.14,North,4,0.0,0.0,99,0.00,CLR,,0.01,WeatherDisplay:10.37,2013-10-25 17:12:00,
2013-10-25 10:17:00,50.9,50.6,30.14,North,4,0.0,0.0,99,0.00,CLR,,0.01,WeatherDisplay:10.37,2013-10-25 17:17:00,
2013-10-25 10:22:00,50.6,50.3,30.14,North,4,0.0,0.0,99,0.00,CLR,,0.01,WeatherDisplay:10.37,2013-10-25 17:22:00,
2013-10-25 10:27:00,50.6,50.3,30.14,North,4,0.0,0.0,99,0.00,CLR,,0.01,WeatherDisplay:10.37,2013-10-25 17:27:00,
2013-10-25 10:32:00,50.7,50.4,30.14,North,353,3.5,3.5,99,0.00,CLR,,0.01,WeatherDisplay:10.37,2013-10-25 17:32:00,
2013-10-25 10:37:00,50.7,50.4,30.14,NNE,18,5.8,5.8,99,0.00,CLR,,0.01,WeatherDisplay:10.37,2013-10-25 17:37:00,
2013-10-25 10:42:00,50.9,50.6,30.14,North,1,1.2,0.0,99,0.00,CLR,,0.01,WeatherDisplay:10.37,2013-10-25 17:42:00,
2013-10-25 10:47:00,50.9,50.6,30.14,North,1,0.0,0.0,99,0.00,CLR,,0.01,WeatherDisplay:10.37,2013-10-25 17:47:00,
2013-10-25 10:52:00,50.9,50.6,30.14,NNW,346,0.0,0.0,99,0.00,CLR,,0.01,WeatherDisplay:10.37,2013-10-25 17:52:00,
2013-10-25 10:57:00,51.1,50.8,30.14,NNW,332,3.5,3.5,99,0.00,CLR,,0.01,WeatherDisplay:10.37,2013-10-25 17:57:00,
2013-10-25 11:02:00,51.1,50.8,30.14,NNW,339,3.8,3.8,99,0.00,CLR,,0.01,WeatherDisplay:10.37,2013-10-25 18:02:00,
2013-10-25 11:07:00,51.3,51.0,30.14,North,349,3.5,3.5,99,0.00,CLR,,0.01,WeatherDisplay:10.37,2013-10-25 18:07:00,
2013-10-25 11:12:00,51.2,50.9,30.14,North,354,5.8,5.8,99,0.00,CLR,,0.01,WeatherDisplay:10.37,2013-10-25 18:12:00,
2013-10-25 11:17:00,51.3,51.0,30.14,NNE,25,3.5,3.5,99,0.00,CLR,,0.01,WeatherDisplay:10.37,2013-10-25 18:17:00,
2013-10-25 11:22:00,51.3,51.0,30.14,NNW,346,2.4,2.4,99,0.00,CLR,,0.01,WeatherDisplay:10.37,2013-10-25 18:22:00,
2013-10-25 11:27:00,51.4,51.1,30.14,North,353,2.3,2.3,99,0.00,CLR,,0.01,WeatherDisplay:10.37,2013-10-25 18:27:00,
2013-10-25 11:32:00,51.4,51.1,30.14,NW,323,2.4,2.4,99,0.00,CLR,,0.01,WeatherDisplay:10.37,2013-10-25 18:32:00,
2013-10-25 11:37:00,51.6,51.3,30.14,North,354,2.3,2.3,99,0.00,CLR,,0.01,WeatherDisplay:10.37,2013-10-25 18:37:00,
2013-10-25 11:42:00,51.5,51.2,30.15,North,349,2.3,2.3,99,0.00,CLR,,0.01,WeatherDisplay:10.37,2013-10-25 18:42:00,
2013-10-25 11:47:00,51.6,51.3,30.15,North,352,3.5,3.5,99,0.00,CLR,,0.01,WeatherDisplay:10.37,2013-10-25 18:47:00,
2013-10-25 11:52:00,51.7,51.4,30.15,NNW,333,3.5,3.5,99,0.00,CLR,,0.01,WeatherDisplay:10.37,2013-10-25 18:52:00,
2013-10-25 11:57:00,51.6,51.1,30.15,North,353,4.6,4.6,98,0.00,CLR,,0.01,WeatherDisplay:10.37,2013-10-25 18:57:00,
2013-10-25 12:02:00,51.6,51.1,30.15,NW,318,4.2,4.2,98,0.00,CLR,,0.01,WeatherDisplay:10.37,2013-10-25 19:02:00,
2013-10-25 12:07:00,51.6,51.1,30.15,North,349,3.5,3.5,98,0.00,CLR,,0.01,WeatherDisplay:10.37,2013-10-25 19:07:00,
2013-10-25 12:12:00,51.7,51.2,30.15,North,356,4.6,4.6,98,0.00,CLR,,0.01,WeatherDisplay:10.37,2013-10-25 19:12:00,
2013-10-25 12:17:00,51.8,51.3,30.15,North,350,3.5,3.5,98,0.00,CLR,,0.01,WeatherDisplay:10.37,2013-10-25 19:17:00,
2013-10-25 12:22:00,51.7,51.2,30.15,NNW,339,5.8,5.8,98,0.00,CLR,,0.01,WeatherDisplay:10.37,2013-10-25 19:22:00,
2013-10-25 12:27:00,51.7,51.2,30.15,NNW,342,3.5,3.5,98,0.00,CLR,,0.01,WeatherDisplay:10.37,2013-10-25 19:27:00,
2013-10-25 12:32:00,51.8,51.3,30.15,NNE,21,5.3,5.3,98,0.00,CLR,,0.01,WeatherDisplay:10.37,2013-10-25 19:32:00,
2013-10-25 12:37:00,51.9,51.4,30.15,WNW,301,3.5,3.5,98,0.00,CLR,,0.01,WeatherDisplay:10.37,2013-10-25 19:37:00,
2013-10-25 12:42:00,52.0,51.5,30.14,WNW,301,0.0,0.0,98,0.00,CLR,,0.01,WeatherDisplay:10.37,2013-10-25 19:42:00,
2013-10-25 12:47:00,52.2,51.7,30.14,NW,318,5.8,5.8,98,0.00,CLR,,0.01,WeatherDisplay:10.37,2013-10-25 19:47:00,
2013-10-25 12:52:00,52.1,51.3,30.14,North,1,5.8,5.8,97,0.00,CLR,,0.01,WeatherDisplay:10.37,2013-10-25 19:52:00,
2013-10-25 12:57:00,52.1,51.3,30.14,NNE,30,4.7,4.7,97,0.00,CLR,,0.01,WeatherDisplay:10.37,2013-10-25 19:57:00,
2013-10-25 13:02:00,52.1,51.3,30.14,NNE,20,8.1,8.1,97,0.00,CLR,,0.01,WeatherDisplay:10.37,2013-10-25 20:02:00,
2013-10-25 13:07:00,52.4,51.6,30.14,NNW,336,3.5,3.5,97,0.00,CLR,,0.01,WeatherDisplay:10.37,2013-10-25 20:07:00,
2013-10-25 13:12:00,52.6,51.8,30.14,NNW,344,0.0,0.0,97,0.00,CLR,,0.01,WeatherDisplay:10.37,2013-10-25 20:12:00,
2013-10-25 13:17:00,52.7,51.9,30.14,NNW,344,0.0,0.0,97,0.00,CLR,,0.01,WeatherDisplay:10.37,2013-10-25 20:17:00,
2013-10-25 13:22:00,52.7,51.9,30.14,NW,319,5.8,5.8,97,0.00,CLR,,0.01,WeatherDisplay:10.37,2013-10-25 20:22:00,
2013-10-25 13:27:00,52.7,51.9,30.14,North,360,4.6,4.6,97,0.00,CLR,,0.01,WeatherDisplay:10.37,2013-10-25 20:27:00,
2013-10-25 13:32:00,52.6,51.5,30.14,NNE,25,5.8,5.8,96,0.00,CLR,,0.01,WeatherDisplay:10.37,2013-10-25 20:32:00,
2013-10-25 13:37:00,52.5,51.7,30.14,North,11,5.8,5.8,97,0.00,CLR,,0.01,WeatherDisplay:10.37,2013-10-25 20:37:00,
2013-10-25 13:42:00,52.5,51.7,30.14,NNE,20,7.3,7.3,97,0.00,CLR,,0.01,WeatherDisplay:10.37,2013-10-25 20:42:00,
2013-10-25 13:47:00,52.4,51.3,30.14,NNE,21,8.1,8.1,96,0.00,CLR,,0.01,WeatherDisplay:10.37,2013-10-25 20:47:00,
2013-10-25 13:52:00,52.6,51.8,30.14,North,357,6.9,6.9,97,0.00,CLR,,0.01,WeatherDisplay:10.37,2013-10-25 20:52:00,
2013-10-25 13:57:00,52.8,52.0,30.14,North,11,3.5,3.5,97,0.00,CLR,,0.01,WeatherDisplay:10.37,2013-10-25 20:57:00,
2013-10-25 14:02:00,52.8,51.7,30.14,North,349,4.6,4.6,96,0.00,CLR,,0.01,WeatherDisplay:10.37,2013-10-25 21:02:00,
2013-10-25 14:07:00,52.9,51.8,30.14,North,3,0.0,0.0,96,0.00,CLR,,0.01,WeatherDisplay:10.37,2013-10-25 21:07:00,
2013-10-25 14:12:00,52.9,51.8,30.14,NNW,335,5.8,5.8,96,0.00,CLR,,0.01,WeatherDisplay:10.37,2013-10-25 21:12:00,
2013-10-25 14:17:00,52.8,51.7,30.14,NNW,337,4.6,4.6,96,0.00,CLR,,0.01,WeatherDisplay:10.37,2013-10-25 21:17:00,
2013-10-25 14:22:00,52.8,51.7,30.14,NNW,333,3.5,3.5,96,0.00,CLR,,0.01,WeatherDisplay:10.37,2013-10-25 21:22:00,
2013-10-25 14:27:00,52.8,51.7,30.14,NNW,347,3.5,3.5,96,0.00,CLR,,0.01,WeatherDisplay:10.37,2013-10-25 21:27:00,
2013-10-25 14:32:00,52.8,51.7,30.14,NW,322,3.5,3.5,96,0.00,CLR,,0.01,WeatherDisplay:10.37,2013-10-25 21:32:00,
2013-10-25 14:37:00,52.9,51.8,30.14,North,360,3.5,3.5,96,0.00,CLR,,0.01,WeatherDisplay:10.37,2013-10-25 21:37:00,
2013-10-25 14:42:00,52.9,51.8,30.14,North,3,3.5,3.5,96,0.00,CLR,,0.01,WeatherDisplay:10.37,2013-10-25 21:42:00,
2013-10-25 14:47:00,52.9,51.8,30.13,NNW,346,4.6,4.6,96,0.00,CLR,,0.01,WeatherDisplay:10.37,2013-10-25 21:47:00,
2013-10-25 14:52:00,53.0,51.9,30.13,NNW,333,3.5,3.5,96,0.00,CLR,,0.01,WeatherDisplay:10.37,2013-10-25 21:52:00,
2013-10-25 14:57:00,52.9,51.8,30.13,NNW,337,2.3,2.3,96,0.00,CLR,,0.01,WeatherDisplay:10.37,2013-10-25 21:57:00,
2013-10-25 15:02:00,53.0,51.9,30.13,NNW,329,0.0,0.0,96,0.00,CLR,,0.01,WeatherDisplay:10.37,2013-10-25 22:02:00,
2013-10-25 15:07:00,52.9,51.8,30.13,NW,319,4.6,4.6,96,0.00,CLR,,0.01,WeatherDisplay:10.37,2013-10-25 22:07:00,
2013-10-25 15:12:00,53.0,51.9,30.13,NNW,347,0.0,0.0,96,0.00,CLR,,0.01,WeatherDisplay:10.37,2013-10-25 22:12:00,
2013-10-25 15:17:00,53.0,51.9,30.13,NW,313,2.3,2.3,96,0.00,CLR,,0.01,WeatherDisplay:10.37,2013-10-25 22:17:00,
2013-10-25 15:22:00,53.0,51.9,30.13,West,277,2.3,2.3,96,0.00,CLR,,0.01,WeatherDisplay:10.37,2013-10-25 22:22:00,
2013-10-25 15:27:00,53.0,51.9,30.13,West,277,0.0,0.0,96,0.00,CLR,,0.01,WeatherDisplay:10.37,2013-10-25 22:27:00,
2013-10-25 15:32:00,52.9,51.8,30.13,North,10,3.5,3.5,96,0.00,CLR,,0.01,WeatherDisplay:10.37,2013-10-25 22:32:00,
2013-10-25 15:37:00,52.9,51.8,30.13,North,357,4.6,4.6,96,0.00,CLR,,0.01,WeatherDisplay:10.37,2013-10-25 22:37:00,
2013-10-25 15:42:00,52.7,51.6,30.13,North,360,4.6,4.6,96,0.00,CLR,,0.01,WeatherDisplay:10.37,2013-10-25 22:42:00,
2013-10-25 15:47:00,52.6,51.8,30.13,NNE,23,7.0,7.0,97,0.00,CLR,,0.01,WeatherDisplay:10.37,2013-10-25 22:47:00,
2013-10-25 15:52:00,52.3,51.5,30.13,NNE,25,6.9,6.9,97,0.00,CLR,,0.01,WeatherDisplay:10.37,2013-10-25 22:52:00,
2013-10-25 15:57:00,52.2,51.4,30.13,NNE,23,5.8,5.8,97,0.00,CLR,,0.01,WeatherDisplay:10.37,2013-10-25 22:57:00,
2013-10-25 16:02:00,52.4,51.6,30.13,NNE,13,5.8,5.8,97,0.00,CLR,,0.01,WeatherDisplay:10.37,2013-10-25 23:02:00,
2013-10-25 16:07:00,52.3,51.5,30.13,NNE,20,5.8,5.8,97,0.00,CLR,,0.01,WeatherDisplay:10.37,2013-10-25 23:07:00,
2013-10-25 16:12:00,52.6,51.8,30.13,NNE,18,2.3,2.3,97,0.00,CLR,,0.01,WeatherDisplay:10.37,2013-10-25 23:12:00,
2013-10-25 16:17:00,52.7,51.9,30.13,NW,325,0.0,0.0,97,0.00,CLR,,0.01,WeatherDisplay:10.37,2013-10-25 23:17:00,
2013-10-25 16:22:00,52.7,51.9,30.13,NW,325,0.0,0.0,97,0.00,CLR,,0.01,WeatherDisplay:10.37,2013-10-25 23:22:00,
2013-10-25 16:27:00,52.6,51.8,30.13,North,360,3.5,3.5,97,0.00,CLR,,0.01,WeatherDisplay:10.37,2013-10-25 23:27:00,
2013-10-25 16:32:00,52.5,51.7,30.13,NNW,333,2.3,0.0,97,0.00,CLR,,0.01,WeatherDisplay:10.37,2013-10-25 23:32:00,
2013-10-25 16:37:00,52.5,51.7,30.13,NNW,333,0.0,0.0,97,0.00,CLR,,0.01,WeatherDisplay:10.37,2013-10-25 23:37:00,
2013-10-25 16:42:00,52.4,51.6,30.13,NNW,333,0.0,0.0,97,0.00,CLR,,0.01,WeatherDisplay:10.37,2013-10-25 23:42:00,
2013-10-25 16:47:00,52.4,51.6,30.13,NNW,335,0.0,0.0,97,0.00,CLR,,0.01,WeatherDisplay:10.37,2013-10-25 23:47:00,
2013-10-25 16:52:00,52.4,51.6,30.13,North,353,3.5,3.5,97,0.00,CLR,,0.01,WeatherDisplay:10.37,2013-10-25 23:52:00,
2013-10-25 16:57:00,52.6,51.8,30.13,West,280,1.2,1.2,97,0.00,CLR,,0.01,WeatherDisplay:10.37,2013-10-25 23:57:00,
2013-10-25 17:02:00,52.7,51.9,30.13,West,280,0.0,0.0,97,0.00,CLR,,0.01,WeatherDisplay:10.37,2013-10-26 00:02:00,
2013-10-25 17:07:00,52.5,51.7,30.13,NW,319,3.5,3.5,97,0.00,CLR,,0.01,WeatherDisplay:10.37,2013-10-26 00:07:00,
2013-10-25 17:12:00,52.4,51.6,30.13,North,349,2.3,2.3,97,0.00,CLR,,0.01,WeatherDisplay:10.37,2013-10-26 00:12:00,
2013-10-25 17:17:00,52.3,51.5,30.13,North,357,0.0,0.0,97,0.00,CLR,,0.01,WeatherDisplay:10.37,2013-10-26 00:17:00,
2013-10-25 17:22:00,52.4,51.6,30.13,North,357,0.0,0.0,97,0.00,CLR,,0.01,WeatherDisplay:10.37,2013-10-26 00:22:00,
2013-10-25 17:27:00,52.4,51.6,30.13,North,357,0.0,0.0,97,0.00,CLR,,0.01,WeatherDisplay:10.37,2013-10-26 00:27:00,
2013-10-25 17:32:00,52.5,51.7,30.13,North,360,0.0,0.3,97,0.00,CLR,,0.01,WeatherDisplay:10.37,2013-10-26 00:32:00,
2013-10-25 17:37:00,52.4,51.6,30.13,NNW,330,4.6,4.6,97,0.00,CLR,,0.01,WeatherDisplay:10.37,2013-10-26 00:37:00,
2013-10-25 17:42:00,52.3,51.5,30.13,NNW,337,3.5,3.5,97,0.00,CLR,,0.01,WeatherDisplay:10.37,2013-10-26 00:42:00,
2013-10-25 17:47:00,52.2,51.4,30.13,WNW,296,0.0,0.0,97,0.00,CLR,,0.01,WeatherDisplay:10.37,2013-10-26 00:47:00,
2013-10-25 17:52:00,52.2,51.4,30.13,WNW,296,0.0,0.0,97,0.00,CLR,,0.01,WeatherDisplay:10.37,2013-10-26 00:52:00,
2013-10-25 17:57:00,52.1,51.3,30.13,NW,326,3.5,3.5,97,0.00,CLR,,0.01,WeatherDisplay:10.37,2013-10-26 00:57:00,
2013-10-25 18:02:00,52.0,51.2,30.13,NNW,346,3.5,3.5,97,0.00,CLR,,0.01,WeatherDisplay:10.37,2013-10-26 01:02:00,
2013-10-25 18:07:00,51.8,51.0,30.13,North,353,5.8,5.8,97,0.00,CLR,,0.01,WeatherDisplay:10.37,2013-10-26 01:07:00,
2013-10-25 18:12:00,51.8,51.0,30.13,NNW,339,3.5,3.5,97,0.00,CLR,,0.01,WeatherDisplay:10.37,2013-10-26 01:12:00,
2013-10-25 18:17:00,51.7,51.2,30.13,North,0,5.8,5.8,98,0.00,CLR,,0.01,WeatherDisplay:10.37,2013-10-26 01:17:00,
2013-10-25 18:22:00,51.7,51.2,30.13,NNE,16,0.0,0.0,98,0.00,CLR,,0.01,WeatherDisplay:10.37,2013-10-26 01:22:00,
2013-10-25 18:27:00,51.8,51.3,30.13,NNE,16,0.0,0.0,98,0.00,CLR,,0.01,WeatherDisplay:10.37,2013-10-26 01:27:00,
2013-10-25 18:32:00,51.8,51.3,30.13,NNW,332,4.6,4.6,98,0.00,CLR,,0.01,WeatherDisplay:10.37,2013-10-26 01:32:00,
2013-10-25 18:37:00,51.6,51.1,30.13,NNW,329,1.2,1.2,98,0.00,CLR,,0.01,WeatherDisplay:10.37,2013-10-26 01:37:00,
2013-10-25 18:42:00,51.7,51.2,30.13,NNW,329,0.0,0.0,98,0.00,CLR,,0.01,WeatherDisplay:10.37,2013-10-26 01:42:00,
2013-10-25 18:47:00,51.7,51.2,30.13,NNW,329,0.0,0.0,98,0.00,CLR,,0.01,WeatherDisplay:10.37,2013-10-26 01:47:00,
2013-10-25 18:52:00,51.7,51.2,30.14,NNW,329,0.0,0.0,98,0.00,CLR,,0.01,WeatherDisplay:10.37,2013-10-26 01:52:00,
2013-10-25 18:57:00,51.5,51.0,30.14,NNW,339,4.6,4.6,98,0.00,CLR,,0.01,WeatherDisplay:10.37,2013-10-26 01:57:00,
2013-10-25 19:02:00,51.6,51.1,30.14,NNE,18,4.3,4.3,98,0.00,CLR,,0.01,WeatherDisplay:10.37,2013-10-26 02:02:00,
2013-10-25 19:07:00,51.3,50.8,30.14,NNE,14,6.3,6.3,98,0.00,CLR,,0.01,WeatherDisplay:10.37,2013-10-26 02:07:00,
2013-10-25 19:12:00,51.3,50.8,30.14,North,0,5.8,5.8,98,0.00,CLR,,0.01,WeatherDisplay:10.37,2013-10-26 02:12:00,
2013-10-25 19:17:00,51.5,51.0,30.14,NNW,342,2.3,2.3,98,0.00,CLR,,0.01,WeatherDisplay:10.37,2013-10-26 02:17:00,
2013-10-25 19:22:00,51.6,51.1,30.14,NNW,336,0.0,0.0,98,0.00,CLR,,0.01,WeatherDisplay:10.37,2013-10-26 02:22:00,
2013-10-25 19:27:00,51.5,51.0,30.14,NNW,336,1.2,0.0,98,0.00,CLR,,0.01,WeatherDisplay:10.37,2013-10-26 02:27:00,
2013-10-25 19:32:00,51.4,50.9,30.14,NNW,340,1.2,1.2,98,0.00,CLR,,0.01,WeatherDisplay:10.37,2013-10-26 02:32:00,
2013-10-25 19:37:00,51.6,51.1,30.15,NNW,340,0.0,0.0,98,0.00,CLR,,0.01,WeatherDisplay:10.37,2013-10-26 02:37:00,
2013-10-25 19:42:00,51.4,50.9,30.15,North,352,4.6,4.6,98,0.00,CLR,,0.01,WeatherDisplay:10.37,2013-10-26 02:42:00,
2013-10-25 19:47:00,51.5,51.0,30.15,North,359,1.2,1.2,98,0.00,CLR,,0.01,WeatherDisplay:10.37,2013-10-26 02:47:00,
2013-10-25 19:52:00,51.4,50.9,30.15,NW,322,2.9,2.9,98,0.00,CLR,,0.01,WeatherDisplay:10.37,2013-10-26 02:52:00,
2013-10-25 19:57:00,51.4,50.9,30.15,NW,326,0.0,0.0,98,0.00,CLR,,0.01,WeatherDisplay:10.37,2013-10-26 02:57:00,
2013-10-25 20:02:00,51.4,50.9,30.15,NNW,342,4.6,4.6,98,0.00,CLR,,0.01,WeatherDisplay:10.37,2013-10-26 03:02:00,
2013-10-25 20:07:00,51.3,50.8,30.15,NNW,333,4.6,4.6,98,0.00,CLR,,0.01,WeatherDisplay:10.37,2013-10-26 03:07:00,
2013-10-25 20:12:00,51.4,50.9,30.15,North,357,3.5,3.5,98,0.00,CLR,,0.01,WeatherDisplay:10.37,2013-10-26 03:12:00,
2013-10-25 20:17:00,51.4,50.9,30.15,NW,325,3.5,3.5,98,0.00,CLR,,0.01,WeatherDisplay:10.37,2013-10-26 03:17:00,
2013-10-25 20:22:00,51.3,50.8,30.15,North,360,5.8,5.8,98,0.00,CLR,,0.01,WeatherDisplay:10.37,2013-10-26 03:22:00,
2013-10-25 20:27:00,51.3,50.8,30.15,NW,306,3.2,3.2,98,0.00,CLR,,0.01,WeatherDisplay:10.37,2013-10-26 03:27:00,
2013-10-25 20:32:00,51.3,50.8,30.15,NW,325,0.0,0.0,98,0.00,CLR,,0.01,WeatherDisplay:10.37,2013-10-26 03:32:00,
2013-10-25 20:37:00,51.3,50.8,30.15,NNW,333,5.8,5.8,98,0.00,CLR,,0.01,WeatherDisplay:10.37,2013-10-26 03:37:00,
2013-10-25 20:42:00,51.3,50.8,30.15,NNW,344,4.5,4.5,98,0.00,CLR,,0.01,WeatherDisplay:10.37,2013-10-26 03:42:00,
2013-10-25 20:47:00,51.3,50.8,30.15,NNW,343,3.5,3.5,98,0.00,CLR,,0.01,WeatherDisplay:10.37,2013-10-26 03:47:00,
2013-10-25 20:52:00,51.2,50.7,30.15,NNW,337,6.9,6.9,98,0.00,CLR,,0.01,WeatherDisplay:10.37,2013-10-26 03:52:00,
2013-10-25 20:57:00,51.2,50.7,30.16,NNW,339,0.0,0.0,98,0.00,CLR,,0.01,WeatherDisplay:10.37,2013-10-26 03:57:00,
2013-10-25 21:01:00,51.3,50.8,30.16,North,354,3.5,3.5,98,0.00,CLR,,0.01,WeatherDisplay:10.37,2013-10-26 04:01:00,
2013-10-25 21:06:00,51.3,50.8,30.16,NNE,27,2.2,2.2,98,0.00,CLR,,0.01,WeatherDisplay:10.37,2013-10-26 04:06:00,
2013-10-25 21:11:00,51.3,50.8,30.16,North,4,3.5,3.5,98,0.00,CLR,,0.01,WeatherDisplay:10.37,2013-10-26 04:11:00,
2013-10-25 21:16:00,51.3,50.8,30.16,North,350,0.0,0.0,98,0.00,CLR,,0.01,WeatherDisplay:10.37,2013-10-26 04:16:00,
2013-10-25 21:21:00,51.3,50.8,30.16,North,350,0.0,0.0,98,0.00,CLR,,0.01,WeatherDisplay:10.37,2013-10-26 04:21:00,
2013-10-25 21:26:00,51.2,50.7,30.16,North,350,0.0,0.0,98,0.00,CLR,,0.01,WeatherDisplay:10.37,2013-10-26 04:26:00,
2013-10-25 21:31:00,51.3,50.8,30.16,North,350,0.0,0.0,98,0.00,CLR,,0.01,WeatherDisplay:10.37,2013-10-26 04:31:00,
2013-10-25 21:36:00,51.3,50.8,30.17,NNW,337,1.2,0.0,98,0.00,CLR,,0.01,WeatherDisplay:10.37,2013-10-26 04:36:00,
2013-10-25 21:41:00,51.4,50.9,30.17,NNW,337,0.0,0.0,98,0.00,CLR,,0.01,WeatherDisplay:10.37,2013-10-26 04:41:00,
2013-10-25 21:46:00,51.4,50.9,30.17,NNW,337,0.0,0.0,98,0.00,CLR,,0.01,WeatherDisplay:10.37,2013-10-26 04:46:00,
2013-10-25 21:51:00,51.4,50.9,30.17,NNW,337,0.0,0.0,98,0.00,CLR,,0.01,WeatherDisplay:10.37,2013-10-26 04:51:00,
2013-10-25 21:56:00,51.3,50.8,30.17,NNW,337,0.0,0.0,98,0.00,CLR,,0.01,WeatherDisplay:10.37,2013-10-26 04:56:00,
2013-10-25 22:01:00,51.4,50.9,30.17,NNW,337,0.0,0.0,98,0.00,CLR,,0.01,WeatherDisplay:10.37,2013-10-26 05:01:00,
2013-10-25 22:06:00,51.4,50.9,30.17,NNW,337,0.0,0.0,98,0.00,CLR,,0.01,WeatherDisplay:10.37,2013-10-26 05:06:00,
2013-10-25 22:11:00,51.4,50.9,30.17,NNW,337,0.0,0.0,98,0.00,CLR,,0.01,WeatherDisplay:10.37,2013-10-26 05:11:00,
2013-10-25 22:16:00,51.4,50.9,30.17,NNW,337,0.0,0.0,98,0.00,CLR,,0.01,WeatherDisplay:10.37,2013-10-26 05:16:00,
2013-10-25 22:21:00,51.4,50.9,30.17,NNW,339,2.3,2.3,98,0.00,CLR,,0.01,WeatherDisplay:10.37,2013-10-26 05:21:00,
2013-10-25 22:26:00,51.4,50.9,30.17,NNW,339,0.0,0.0,98,0.00,CLR,,0.01,WeatherDisplay:10.37,2013-10-26 05:26:00,
2013-10-25 22:31:00,51.4,50.9,30.17,NW,322,2.3,0.0,98,0.00,CLR,,0.01,WeatherDisplay:10.37,2013-10-26 05:31:00,
2013-10-25 22:36:00,51.4,50.9,30.17,NNE,20,4.7,4.7,98,0.00,CLR,,0.01,WeatherDisplay:10.37,2013-10-26 05:36:00,
2013-10-25 22:41:00,51.5,51.0,30.17,NNW,332,0.0,0.0,98,0.00,CLR,,0.01,WeatherDisplay:10.37,2013-10-26 05:41:00,
2013-10-25 22:46:00,51.6,51.1,30.17,NW,318,0.0,0.0,98,0.00,CLR,,0.01,WeatherDisplay:10.37,2013-10-26 05:46:00,
2013-10-25 22:51:00,51.6,51.1,30.17,NNW,337,3.5,0.0,98,0.00,CLR,,0.01,WeatherDisplay:10.37,2013-10-26 05:51:00,
2013-10-25 22:56:00,51.6,51.1,30.17,NNW,337,0.0,0.0,98,0.00,CLR,,0.01,WeatherDisplay:10.37,2013-10-26 05:56:00,
2013-10-25 23:01:00,51.4,50.9,30.17,NNW,337,0.0,0.0,98,0.00,CLR,,0.01,WeatherDisplay:10.37,2013-10-26 06:01:00,
2013-10-25 23:06:00,51.3,50.8,30.17,NNW,328,2.3,0.0,98,0.00,CLR,,0.01,WeatherDisplay:10.37,2013-10-26 06:06:00,
2013-10-25 23:12:00,51.3,50.8,30.17,North,350,0.0,0.0,98,0.00,CLR,,0.01,WeatherDisplay:10.37,2013-10-26 06:12:00,
2013-10-25 23:17:00,51.3,50.8,30.17,North,350,0.0,0.0,98,0.00,CLR,,0.01,WeatherDisplay:10.37,2013-10-26 06:17:00,
2013-10-25 23:22:00,51.2,50.7,30.17,North,350,0.0,0.0,98,0.00,CLR,,0.01,WeatherDisplay:10.37,2013-10-26 06:22:00,
2013-10-25 23:27:00,51.3,50.8,30.17,North,350,0.0,0.0,98,0.00,CLR,,0.01,WeatherDisplay:10.37,2013-10-26 06:27:00,
2013-10-25 23:32:00,51.3,50.8,30.17,North,350,0.0,0.0,98,0.00,CLR,,0.01,WeatherDisplay:10.37,2013-10-26 06:32:00,
2013-10-25 23:37:00,51.2,50.7,30.17,NW,323,2.3,2.3,98,0.00,CLR,,0.01,WeatherDisplay:10.37,2013-10-26 06:37:00,
2013-10-25 23:42:00,51.3,50.8,30.17,NNW,339,1.2,0.0,98,0.00,CLR,,0.01,WeatherDisplay:10.37,2013-10-26 06:42:00,
2013-10-25 23:47:00,51.3,50.8,30.17,NNW,329,0.0,0.0,98,0.00,CLR,,0.01,WeatherDisplay:10.37,2013-10-26 06:47:00,
2013-10-25 23:52:00,51.2,50.7,30.17,NNW,329,0.0,0.0,98,0.00,CLR,,0.01,WeatherDisplay:10.37,2013-10-26 06:52:00,
2013-10-25 23:57:00,51.2,50.7,30.17,NNW,329,0.0,0.0,98,0.00,CLR,,0.01,WeatherDisplay:10.37,2013-10-26 06:57:00,